Location: ???? ??????? ????
(31.2176°N, 31.6797°E)
Time: 18:17:12
(UTC+00:00)

Cosmos 2360 - Pass Details

Date: 29 October 2020
Orbit: 848 x 854 km, 70.8° (Epoch: 29 November)

Event Time Altitude Azimuth Distance (km) Brightness Sun altitude
Rises 16:05:48 0° 197° (SSW) 3,407 7.7 -13.1°
Reaches altitude 10° 16:08:15 10° 196° (SSW) 2,474 6.9 -13.7°
Maximum altitude 16:13:57 84° 109° (ESE) 862 4.2 -14.9°
Drops below altitude 10° 16:19:40 10° 22° (NNE) 2,485 6.4 -16.1°
Sets 16:22:07 0° 21° (NNE) 3,423 7.1 -16.6°
